Regional Weather Roundup
Issued by NWS

Home | Current Version | Previous Version | Text Only | Print | Product List | Glossary On
Versions: 1 2 3 4 5 6 7 8 9 10 11 12 13 14 15 16 17 18 19 20 21 22 23 24 25 26 27 28 29 30 31 32 33 34 35 36 37 38 39 40 41 42 43 44 45 46 47 48 49 50
000
ASUS44 KLIX 300006
RWRLA
LOUISIANA WEATHER ROUNDUP
NATIONAL WEATHER SERVICE NEW ORLEANS LA
700 PM CDT SAT AUG 29 2015

NOTE: "FAIR" INDICATES FEW OR NO CLOUDS BELOW 12,000 FEET WITH NO
      SIGNIFICANT WEATHER AND/OR OBSTRUCTIONS TO VISIBILITY.
      SKY/WX - SKY CONDITION AND SIGNIFICANT WEATHER.
      TMP - AIR TEMPERATURE.    DP   - DEWPOINT TEMPERATURE.
      RH  - RELATIVE HUMIDITY.  PRES - PRESSURE.
      HX  - HEAT INDEX.         WCI  - WIND CHILL INDEX.

*  THESE STATIONS ARE NOT NWS OR FAA STATIONS AND ARE NOT UNDER
   NWS QUALITY CONTROL.

LAZ040-048-061>063-065-066-069-300100-
SOUTHEAST LOUISIANA

CITY           SKY/WX    TMP DP  RH WIND       PRES   REMARKS
N.O. AUDUBON     N/A     87  69  55 MISG        N/A
6HR MIN TEMP:  86; 6HR MAX TEMP:  94;

N.O. INTL ARPT MOCLDY    85  66  53 S8        29.99R
6HR MIN TEMP:  85; 6HR MAX TEMP:  90;

N.O. LAKEFRONT MOCLDY    84  65  52 S9        30.00R
6HR MIN TEMP:  84; 6HR MAX TEMP:  88;

N.O. DOWNTOWN* FAIR      86  66  51 S9        30.00S
6HR MIN TEMP:  86; 6HR MAX TEMP:  91;

RESERVE*       CLOUDY    86  70  59 NE6       29.98S
6HR MIN TEMP:  86; 6HR MAX TEMP:  92;

SLIDELL        CLEAR     85  69  58 S7        29.99R
6HR MIN TEMP:  85; 6HR MAX TEMP:  89;

BATON ROUGE    CLEAR     87  65  47 NE3       29.97S
6HR MIN TEMP:  86; 6HR MAX TEMP:  91;

BOOTHVILLE     CLEAR     84  67  56 S3        30.01R
6HR MIN TEMP:  84; 6HR MAX TEMP:  90;

BELLE CHASSE   PTCLDY    83  67  58 SE6       29.99S
6HR MIN TEMP:  83; 6HR MAX TEMP:  88;

BOGALUSA*      NOT AVBL
GALLIANO*      CLEAR     84  66  54 MISG      30.00R
6HR MIN TEMP:  84; 6HR MAX TEMP:  92;

NEW ROADS*     FAIR      85  63  48 CALM      29.97S
6HR MIN TEMP:  85; 6HR MAX TEMP:  89;

GONZALES*      FAIR      82  71  68 CALM      29.97S
6HR MIN TEMP:  82; 6HR MAX TEMP:  89;

HAMMOND*       CLEAR     84  64  51 SE6       30.00S
HOUMA*         PTCLDY    82  70  65 S5        29.99
PORT FOURCHON* CLEAR     84  66  54 S6        30.00S

$$

LAZ041-044-053-054-300100-
SOUTHWEST LOUISIANA

CITY           SKY/WX    TMP DP  RH WIND       PRES   REMARKS
LAKE CHARLES   CLEAR     84  66  54 S6        29.98S
6HR MIN TEMP:  84; 6HR MAX TEMP:  90;

LAFAYETTE      PTCLDY    86  69  56 CALM      29.97S
6HR MIN TEMP:  86; 6HR MAX TEMP:  91;

PATTERSON      CLEAR     82  66  57 SW7       29.99S
6HR MIN TEMP:  82; 6HR MAX TEMP:  90;

SALT POINT       N/A     85  69  58 S3        29.97S
6HR MIN TEMP:  85; 6HR MAX TEMP:  88;

NEW IBERIA     CLEAR     86  67  52 SW8       29.98S
6HR MIN TEMP:  86; 6HR MAX TEMP:  93;

CHENAULT AIRPK NOT AVBL

$$

LAZ027-028-300100-
CENTRAL LOUISIANA

CITY           SKY/WX    TMP DP  RH WIND       PRES   REMARKS
FORT POLK      PTCLDY    88  62  42 S7        29.96S
6HR MIN TEMP:  87; 6HR MAX TEMP:  91;

ALEXANDRIA INT CLEAR     88  61  40 SE6       29.94S
6HR MIN TEMP:  88; 6HR MAX TEMP:  94;

ALEXANDRIA     CLEAR     86  67  52 CALM      29.96S
6HR MIN TEMP:  86; 6HR MAX TEMP:  96;


$$

LAZ001-002-300100-
NORTHWEST LOUISIANA

CITY           SKY/WX    TMP DP  RH WIND       PRES   REMARKS
SHREVEPORT     MOCLDY    89  61  38 S3        29.95S
6HR MIN TEMP:  89; 6HR MAX TEMP:  94;

BARKSDALE AFB  PTCLDY    86  65  49 E5        29.95F
6HR MIN TEMP:  86; 6HR MAX TEMP:  93;

DTN SHREVEPORT PTCLDY    86  63  45 E5        29.95F
6HR MIN TEMP:  86; 6HR MAX TEMP:  92;


$$

LAZ014-016-300100-
NORTHEAST LOUISIANA

CITY           SKY/WX    TMP DP  RH WIND       PRES   REMARKS
MONROE         CLEAR     88  67  49 VRB3      29.97R
6HR MIN TEMP:  88; 6HR MAX TEMP:  96;

TALLULAH       CLEAR     83  65  54 CALM      29.97R
6HR MIN TEMP:  83; 6HR MAX TEMP:  93;


$$



USA.gov is the U.S. government's official web portal to all federal, state and local government web resources and services.